Flag for Romania Weather past 2 weeks in Timișoara, Romania

Now
30 °F

Clear.


Feels Like: 23 °F
Forecast: 31 / 38 °F
Wind: 7 mph from East

Location: Timisoara Airport

Current Time: Feb 1, 2015 at 12:37:38 AM

Latest Report: Feb 1, 2015 at 12:00 AM


Visibility: 10 mi

Pressure: 29.30 "Hg

Humidity: 93%

Dew point: 28 °F

Location of TimișoaraLocation

Historic Weather in Timișoara — Graph

°F

Timișoara temperature yesterday

Maximum temperature yesterday: 52 °F (at 12:00 AM)
Minimum temperature yesterday: 28 °F (at 8:30 PM)
Average temperature yesterday: 38 °F

Past Weeks' High & Low Weather Summary

 TemperatureHumidityPressure
High57 °F (Jan 22, 2:30 PM)100% (Jan 18, 7:00 PM)30.21 "Hg (Jan 18, 7:00 PM)
Low28 °F (Jan 31, 8:30 PM)44% (Jan 17, 3:30 PM)28.77 "Hg (Jan 30, 11:00 PM)
Average41 °F89%29.83 "Hg
* Reported Jan 16 11:00 PM — Jan 31 11:30 PM, Timișoara, Weather by CustomWeather, © 2014

Note: Actual official high and low records may vary slightly from our data, if they occured in-between our weather recording intervals... More about our weather records

Advertising

Timișoara weather history for previous 24 hours

 ConditionsComfort  
Time TempWeatherWind HumidityBarometerVisibility
11:30 PM
Jan 31
30 °FClear.5 mph93%29.30 "Hg10 mi
10:30 PM30 °FClear.6 mph93%29.30 "Hg10 mi
10:00 PM30 °FClear.6 mph93%29.30 "Hg10 mi
9:30 PM30 °FClear.5 mph93%29.30 "Hg10 mi
9:00 PM30 °FClear.3 mph93%29.30 "Hg10 mi
8:30 PM28 °FClear.5 mph100%29.30 "Hg10 mi
8:00 PM32 °FChilly.3 mph87%29.30 "HgN/A
7:30 PM34 °FClear.3 mph87%29.30 "Hg10 mi
7:00 PM36 °FClear.6 mph81%29.30 "Hg10 mi
6:30 PM34 °FClear.5 mph93%29.27 "Hg10 mi
6:00 PM39 °FClear.5 mph75%29.27 "Hg10 mi
5:30 PM41 °FSunny.5 mph70%29.27 "Hg10 mi
5:00 PM43 °FSunny.7 mph66%29.27 "Hg10 mi
4:30 PM43 °FSunny.7 mph66%29.27 "Hg10 mi
4:00 PM43 °FPassing clouds.10 mph61%29.27 "HgN/A
3:30 PM43 °FPassing clouds.10 mph66%29.24 "HgN/A
3:00 PM43 °FPassing clouds.13 mph66%29.24 "HgN/A
2:30 PM43 °FPassing clouds.9 mph61%29.24 "HgN/A
2:00 PM43 °FPassing clouds.9 mph61%29.24 "HgN/A
1:30 PM43 °FScattered clouds.8 mph61%29.24 "HgN/A
1:00 PM41 °FScattered clouds.8 mph70%29.24 "HgN/A
12:30 PM41 °FPassing clouds.6 mph70%29.24 "HgN/A
12:00 PM39 °FPassing clouds.10 mph75%29.24 "HgN/A
11:30 AM39 °FPassing clouds.12 mph81%29.24 "HgN/A
11:00 AM37 °FPassing clouds.10 mph81%29.24 "HgN/A
10:30 AM36 °FPassing clouds.10 mph93%29.21 "HgN/A
10:00 AM36 °FLight snow. Scattered clouds.10 mph87%29.21 "HgN/A
9:30 AM36 °FPartly sunny.9 mph87%29.21 "HgN/A
9:00 AM34 °FBroken clouds.9 mph93%29.18 "HgN/A
8:30 AM34 °FBroken clouds.9 mph93%29.15 "HgN/A
8:00 AM34 °FScattered clouds.12 mph93%29.12 "HgN/A
7:30 AM36 °FLight rain. Passing clouds.13 mph93%29.12 "HgN/A
7:00 AM36 °FLight rain. Partly cloudy.9 mph93%29.09 "HgN/A
6:30 AM36 °FPartly cloudy.14 mph93%29.06 "HgN/A
6:00 AM36 °FLight rain. Mostly cloudy.15 mph93%29.06 "Hg5 mi
5:00 AM36 °FPassing clouds.12 mph93%29.00 "HgN/A
4:30 AM36 °FPassing clouds.17 mph100%28.97 "HgN/A
4:00 AM39 °FPassing clouds.15 mph93%28.94 "HgN/A
3:30 AM41 °FClear.16 mph87%28.91 "Hg10 mi
3:00 AM41 °FPassing clouds.14 mph93%28.88 "HgN/A
2:30 AM43 °FPassing clouds.18 mph87%28.88 "HgN/A
2:00 AM48 °FHeavy rain. Passing clouds.25 mph82%28.85 "Hg4 mi
1:30 AM48 °FClear.26 mph71%28.80 "Hg10 mi
1:00 AM48 °FClear.28 mph71%28.80 "Hg10 mi
12:30 AM50 °FClear.30 mph67%28.80 "Hg10 mi
12:00 AM52 °FPassing clouds.32 mph58%28.80 "HgN/A
Weather by CustomWeather, © 2014

See weather overviewHow to use our weather pages